Hourly Weather Lubango

Today, 25 September, Friday

Time Temperature Precipitation Wind Pressure Humidity
00:00 +15°C° 0 mm 1 mps 608 mmHg 54%
01:00 +15°C° 0 mm 1 mps 609 mmHg 55%
02:00 +15°C° 0 mm 1 mps 608 mmHg 55%
03:00 +14°C° 0 mm 1 mps 608 mmHg 55%
04:00 +14°C° 0 mm 1 mps 608 mmHg 55%
05:00 +16°C° 0 mm 1 mps 609 mmHg 51%
06:00 +18°C° 0 mm 1 mps 610 mmHg 46%
07:00 +20°C° 0 mm 1 mps 611 mmHg 40%
08:00 +23°C° 0 mm 2 mps 612 mmHg 32%
09:00 +27°C° 0 mm 3 mps 613 mmHg 24%
10:00 +30°C° 0 mm 3 mps 614 mmHg 16%
11:00 +31°C° 0 mm 3 mps 613 mmHg 15%
12:00 +33°C° 0 mm 3 mps 613 mmHg 14%
13:00 +34°C° 0 mm 4 mps 612 mmHg 13%
14:00 +31°C° 0 mm 3 mps 612 mmHg 16%
15:00 +30°C° 0 mm 3 mps 611 mmHg 19%
16:00 +29°C° 0 mm 3 mps 610 mmHg 22%
17:00 +25°C° 0 mm 3 mps 609 mmHg 39%
18:00 +20°C° 0 mm 2 mps 608 mmHg 56%
19:00 +15°C° 0 mm 1 mps 607 mmHg 73%
20:00 +15°C° 0 mm 1 mps 607 mmHg 73%
21:00 +14°C° 0 mm 1 mps 608 mmHg 72%
22:00 +13°C° 0 mm 1 mps 608 mmHg 72%
23:00 +13°C° 0 mm 1 mps 608 mmHg 69%

Tomorrow, 26 September, Saturday

Time Temperature Precipitation Wind Pressure Humidity
00:00 +13°C° 0 mm 1 mps 607 mmHg 66%
01:00 +13°C° 0 mm 1 mps 607 mmHg 63%
02:00 +13°C° 0 mm 1 mps 607 mmHg 59%
03:00 +13°C° 0 mm 1 mps 607 mmHg 56%
04:00 +13°C° 0 mm 1 mps 607 mmHg 53%
05:00 +15°C° 0 mm 1 mps 607 mmHg 45%
06:00 +16°C° 0 mm 1 mps 608 mmHg 38%
07:00 +19°C° 0 mm 1 mps 609 mmHg 31%
08:00 +21°C° 0 mm 2 mps 610 mmHg 26%
09:00 +25°C° 0 mm 3 mps 611 mmHg 22%
10:00 +28°C° 0 mm 3 mps 613 mmHg 17%
11:00 +29°C° 0 mm 3 mps 612 mmHg 16%
12:00 +30°C° 0 mm 3 mps 612 mmHg 15%
13:00 +31°C° 0 mm 3 mps 611 mmHg 14%
14:00 +30°C° 0 mm 4 mps 610 mmHg 17%
15:00 +29°C° 0 mm 4 mps 610 mmHg 20%
16:00 +28°C° 0 mm 5 mps 609 mmHg 24%
17:00 +23°C° 0 mm 4 mps 608 mmHg 39%
18:00 +19°C° 0 mm 3 mps 607 mmHg 54%
19:00 +14°C° 0 mm 1 mps 606 mmHg 69%
20:00 +14°C° 0 mm 1 mps 606 mmHg 67%
21:00 +14°C° 0 mm 1 mps 606 mmHg 66%
22:00 +14°C° 0 mm 1 mps 607 mmHg 64%
23:00 +14°C° 0 mm 1 mps 606 mmHg 60%

Day after tomorrow, 27 September, Sunday

Time Temperature Precipitation Wind Pressure Humidity
00:00 +14°C° 0 mm 1 mps 606 mmHg 56%
01:00 +13°C° 0 mm 1 mps 606 mmHg 52%
02:00 +13°C° 0 mm 1 mps 606 mmHg 51%
03:00 +13°C° 0 mm 1 mps 605 mmHg 50%
04:00 +13°C° 0 mm 1 mps 605 mmHg 49%
05:00 +14°C° 0 mm 1 mps 606 mmHg 44%
06:00 +16°C° 0 mm 1 mps 607 mmHg 38%
07:00 +18°C° 0 mm 1 mps 608 mmHg 33%
08:00 +21°C° 0 mm 1 mps 610 mmHg 28%
09:00 +25°C° 0 mm 2 mps 611 mmHg 22%
10:00 +28°C° 0 mm 3 mps 612 mmHg 16%
11:00 +29°C° 0 mm 3 mps 612 mmHg 16%
12:00 +30°C° 0 mm 3 mps 611 mmHg 16%
13:00 +31°C° 0 mm 3 mps 611 mmHg 16%
14:00 +30°C° 0 mm 3 mps 610 mmHg 19%
15:00 +29°C° 0 mm 4 mps 609 mmHg 22%
16:00 +28°C° 0 mm 4 mps 609 mmHg 25%
17:00 +24°C° 0 mm 3 mps 608 mmHg 38%
18:00 +19°C° 0 mm 2 mps 607 mmHg 51%
19:00 +15°C° 0 mm 1 mps 606 mmHg 64%
20:00 +15°C° 0 mm 1 mps 606 mmHg 62%
21:00 +15°C° 0 mm 1 mps 607 mmHg 59%
22:00 +15°C° 0 mm 1 mps 607 mmHg 57%
23:00 +14°C° 0 mm 1 mps 607 mmHg 56%

28 September, Monday

Time Temperature Precipitation Wind Pressure Humidity
00:00 +14°C° 0 mm 1 mps 607 mmHg 56%
01:00 +13°C° 0 mm 1 mps 606 mmHg 55%
02:00 +13°C° 0 mm 1 mps 606 mmHg 55%
03:00 +13°C° 0 mm 1 mps 606 mmHg 54%
04:00 +12°C° 0 mm 1 mps 606 mmHg 54%
05:00 +14°C° 0 mm 1 mps 607 mmHg 47%
06:00 +16°C° 0 mm 1 mps 608 mmHg 40%
07:00 +18°C° 0 mm 1 mps 609 mmHg 33%
08:00 +22°C° 0 mm 1 mps 610 mmHg 27%
09:00 +25°C° 0 mm 2 mps 612 mmHg 21%
10:00 +29°C° 0 mm 3 mps 613 mmHg 15%
11:00 +29°C° 0 mm 3 mps 613 mmHg 14%
12:00 +30°C° 0 mm 3 mps 612 mmHg 14%
13:00 +31°C° 0 mm 3 mps 611 mmHg 13%
14:00 +31°C° 0 mm 3 mps 611 mmHg 15%
15:00 +30°C° 0 mm 4 mps 610 mmHg 17%
16:00 +29°C° 0 mm 4 mps 610 mmHg 19%
17:00 +25°C° 0 mm 3 mps 609 mmHg 34%
18:00 +19°C° 0 mm 3 mps 608 mmHg 48%
19:00 +15°C° 0 mm 2 mps 607 mmHg 63%
20:00 +15°C° 0 mm 2 mps 607 mmHg 62%
21:00 +14°C° 0 mm 2 mps 607 mmHg 62%
22:00 +14°C° 0 mm 1 mps 608 mmHg 61%
23:00 +14°C° 0 mm 1 mps 607 mmHg 60%

29 September, Tuesday

Time Temperature Precipitation Wind Pressure Humidity
00:00 +13°C° 0 mm 1 mps 607 mmHg 60%
01:00 +13°C° 0 mm 1 mps 607 mmHg 60%
02:00 +13°C° 0 mm 1 mps 607 mmHg 56%
03:00 +13°C° 0 mm 1 mps 607 mmHg 52%
04:00 +13°C° 0 mm 1 mps 607 mmHg 48%
05:00 +15°C° 0 mm 1 mps 608 mmHg 41%
06:00 +16°C° 0 mm 1 mps 609 mmHg 35%
07:00 +19°C° 0 mm 1 mps 610 mmHg 28%
08:00 +21°C° 0 mm 2 mps 611 mmHg 23%
09:00 +25°C° 0 mm 3 mps 612 mmHg 19%
10:00 +29°C° 0 mm 4 mps 613 mmHg 14%
11:00 +30°C° 0 mm 4 mps 612 mmHg 12%
12:00 +32°C° 0 mm 4 mps 612 mmHg 11%
13:00 +34°C° 0 mm 4 mps 612 mmHg 10%
14:00 +33°C° 0 mm 4 mps 611 mmHg 12%
15:00 +32°C° 0 mm 4 mps 610 mmHg 14%
16:00 +30°C° 0 mm 4 mps 610 mmHg 16%
17:00 +25°C° 0 mm 3 mps 609 mmHg 32%
18:00 +20°C° 0 mm 2 mps 607 mmHg 49%
19:00 +15°C° 0 mm 1 mps 606 mmHg 65%
20:00 +14°C° 0 mm 1 mps 607 mmHg 66%
21:00 +14°C° 0 mm 1 mps 607 mmHg 67%
22:00 +13°C° 0 mm 1 mps 607 mmHg 68%
23:00 +13°C° 0 mm 1 mps 607 mmHg 65%

30 September, Wednesday

Time Temperature Precipitation Wind Pressure Humidity
00:00 +13°C° 0 mm 1 mps 607 mmHg 63%
01:00 +13°C° 0 mm 1 mps 606 mmHg 60%
02:00 +13°C° 0 mm 1 mps 606 mmHg 57%
03:00 +13°C° 0 mm 1 mps 606 mmHg 53%
04:00 +13°C° 0 mm 1 mps 606 mmHg 50%
05:00 +15°C° 0 mm 1 mps 607 mmHg 42%
06:00 +18°C° 0 mm 1 mps 608 mmHg 34%
07:00 +19°C° 0 mm 1 mps 609 mmHg 26%
08:00 +23°C° 0 mm 1 mps 610 mmHg 22%
09:00 +26°C° 0 mm 2 mps 611 mmHg 18%
10:00 +29°C° 0 mm 3 mps 612 mmHg 14%
11:00 +30°C° 0 mm 3 mps 612 mmHg 14%
12:00 +31°C° 0 mm 3 mps 611 mmHg 14%
13:00 +33°C° 0 mm 3 mps 611 mmHg 14%
14:00 +30°C° 0 mm 4 mps 610 mmHg 18%
15:00 +29°C° 0 mm 4 mps 609 mmHg 21%
16:00 +28°C° 0 mm 5 mps 609 mmHg 25%
17:00 +22°C° 0 mm 4 mps 608 mmHg 41%
18:00 +18°C° 0 mm 3 mps 606 mmHg 58%
19:00 +14°C° 0 mm 1 mps 605 mmHg 74%
20:00 +13°C° 0 mm 1 mps 606 mmHg 72%
21:00 +13°C° 0 mm 1 mps 606 mmHg 70%
22:00 +12°C° 0 mm 1 mps 606 mmHg 68%
23:00 +12°C° 0 mm 1 mps 606 mmHg 65%
Show more